DW4230 Weather Reports


time (UTC)temp
C
wind
direction
speed
KPH
gust
KPH
rain 1hr
cm
rain 24hr
cm
rain mn
cm
humidity
%
barometer
mb
20260831131557 20 31 8.0 19.3 0.00 1.75 0.38 87 1018.3
20260831130007 20 44 6.4 16.1 0.00 1.75 0.38 88 1018.3
20260831124545 20 62 6.4 16.1 0.00 1.75 0.38 88 1018.4
20260831123006 20 73 8.0 16.1 0.00 1.75 0.38 89 1018.4
20260831121550 19 60 1.6 9.7 0.00 1.75 0.38 91 1018.2
20260831120017 18 41 4.8 14.5 0.00 1.75 0.38 91 1018.2
20260831114554 18 68 6.4 14.5 0.00 1.75 0.38 93 1018.1
20260831113021 18 48 4.8 12.9 0.00 1.75 0.38 94 1017.9
20260831111605 18 51 4.8 11.3 0.00 1.75 0.38 94 1017.8
20260831110033 18 65 4.8 9.7 0.00 1.75 0.38 95 1017.7
20260831104513 18 79 3.2 9.7 0.03 1.75 0.38 95 1017.5
20260831103038 18 43 3.2 8.0 0.03 1.75 0.38 95 1017.7
20260831101609 18 53 4.8 11.3 0.03 1.75 0.38 94 1017.0
20260831100047 18 48 3.2 9.7 0.03 1.75 0.38 94 1016.9
20260831094522 18 67 3.2 11.3 0.00 1.73 0.36 94 1016.8
20260831093056 18 50 3.2 8.0 0.00 1.73 0.36 94 1016.7
20260831091521 18 5 3.2 9.7 0.00 1.73 0.36 95 1016.6
20260831090123 18 40 3.2 9.7 0.00 1.73 0.36 95 1016.4
20260831084525 19 356 3.2 11.3 0.00 1.73 0.36 95 1016.4
20260831083112 19 21 3.2 8.0 0.00 1.73 0.36 95 1016.4
20260831081521 19 353 4.8 11.3 0.00 1.73 0.36 95 1016.1
20260831080123 19 355 4.8 9.7 0.00 1.73 0.36 95 1016.1
20260831074503 20 360 0.0 11.3 0.00 1.73 0.36 95 1015.9
20260831073041 20 73 0.0 4.8 0.00 1.73 0.36 95 1015.8
20260831071606 20 73 1.6 4.8 0.00 1.73 0.36 95 1015.6
20260831070035 20 73 0.0 4.8 0.00 1.73 0.36 95 1015.5
20260831064511 20 73 0.0 6.4 0.00 1.73 0.36 95 1015.5
20260831063051 20 73 1.6 6.4 0.00 1.73 0.36 95 1015.5
20260831061503 20 73 0.0 8.0 0.00 1.73 0.36 95 1015.5
20260831060032 20 73 0.0 11.3 0.00 1.73 0.36 95 1015.4
20260831054612 20 355 1.6 4.8 0.18 1.73 0.36 94 1015.3
20260831053057 20 356 0.0 0.0 0.43 1.73 0.36 94 1015.3
20260831051516 20 356 0.0 0.0 0.81 1.73 0.36 94 1015.2
20260831050057 20 356 0.0 4.8 1.14 1.73 0.36 94 1015.2
20260831044540 20 9 1.6 9.7 1.32 1.52 0.15 94 1015.4
20260831043103 21 297 0.0 6.4 1.19 1.30 1.30 94 1015.6
20260831041532 21 283 1.6 8.0 0.86 0.89 0.89 94 1015.6
20260831040106 21 273 4.8 12.9 0.58 0.58 0.58 94 1015.8
20260831034536 21 252 3.2 12.9 0.20 0.20 0.20 93 1015.8
20260831033112 21 259 4.8 12.9 0.10 0.10 0.10 93 1015.8
20260831031551 21 277 1.6 16.1 0.03 0.03 0.03 92 1015.9
20260831030020 21 277 3.2 12.9 0.00 0.00 0.00 91 1016.1
20260831024559 21 297 6.4 17.7 0.00 0.00 0.00 91 1016.1
20260831023033 21 252 8.0 20.9 0.00 0.00 0.00 91 1015.7
20260831021616 22 272 9.7 32.2 0.00 0.00 0.00 90 1016.1
20260831020031 22 285 9.7 38.6 0.00 0.00 0.00 90 1016.1
20260831014611 22 274 11.3 29.0 0.00 0.00 0.00 89 1015.9
20260831013043 22 262 8.0 32.2 0.00 0.00 0.00 89 1016.0
20260831011510 22 283 12.9 27.4 0.00 0.00 0.00 89 1015.9
20260831010100 22 283 11.3 33.8 0.00 0.00 0.00 88 1015.8
20260831004519 22 283 11.3 29.0 0.00 0.00 0.00 88 1015.9
20260831003104 22 207 11.3 27.4 0.00 0.00 0.00 88 1015.8
20260831001528 22 272 11.3 29.0 0.00 0.00 0.00 89 1015.7
20260831000105 22 124 6.4 33.8 0.00 0.00 0.00 89 1015.6
20260830234525 22 277 9.7 33.8 0.00 0.00 0.00 88 1015.4
20260830233101 22 124 9.7 22.5 0.00 0.00 0.00 88 1015.5
20260830231531 22 257 4.8 25.7 0.00 0.00 0.00 88 1015.4
20260830230003 22 124 11.3 30.6 0.00 0.00 0.00 88 1015.4
20260830224542 22 124 11.3 32.2 0.00 0.00 0.00 87 1015.4
20260830223012 22 124 11.3 27.4 0.00 0.00 0.00 87 1015.5
20260830220108 22 275 12.9 32.2 0.00 0.00 0.00 87 1015.6
20260830214532 22 255 8.0 25.7 0.00 0.00 0.00 86 1016.0
20260830213113 22 269 6.4 27.4 0.00 0.00 0.00 85 1015.9
20260830211528 22 124 8.0 24.1 0.00 0.00 0.00 84 1016.0
20260830210108 23 272 9.7 29.0 0.00 0.00 0.00 81 1016.1
20260830204542 23 272 11.3 24.1 0.00 0.00 0.00 82 1016.1
20260830203012 23 255 4.8 24.1 0.00 0.00 0.00 81 1016.0
20260830201547 23 124 11.3 30.6 0.00 0.00 0.00 79 1016.1
20260830200016 24 281 8.0 27.4 0.00 0.00 0.00 77 1016.2
20260830194556 24 124 6.4 20.9 0.00 0.00 0.00 76 1016.4
20260830193030 25 124 9.7 27.4 0.00 0.00 0.00 72 1016.5
20260830191555 25 243 6.4 25.7 0.00 0.00 0.00 71 1016.5
20260830190026 24 273 14.5 25.7 0.00 0.00 0.00 74 1016.8
20260830184608 25 265 9.7 24.1 0.00 0.00 0.00 73 1017.1
20260830183044 24 124 12.9 29.0 0.00 0.00 0.00 76 1017.2
20260830181511 24 258 8.0 30.6 0.00 0.00 0.00 77 1017.4
20260830180056 24 259 6.4 24.1 0.00 0.00 0.00 74 1017.6
20260830174528 24 124 9.7 29.0 0.00 0.00 0.00 76 1017.7
20260830173100 24 261 16.1 30.6 0.00 0.00 0.00 78 1017.7
20260830171524 23 124 16.1 29.0 0.00 0.00 0.00 80 1017.7
20260830170049 24 271 16.1 29.0 0.00 0.00 0.00 80 1017.8
20260830164502 25 257 9.7 20.9 0.00 0.00 0.00 79 1017.7
20260830163039 24 260 9.7 24.1 0.00 0.00 0.00 79 1017.8
20260830161506 24 124 12.9 25.7 0.00 0.00 0.00 81 1017.8
20260830160047 23 287 11.3 24.1 0.00 0.00 0.00 81 1018.3
20260830154512 23 264 8.0 27.4 0.00 0.00 0.00 82 1018.4
20260830153050 23 254 9.7 25.7 0.00 0.00 0.00 83 1018.6
20260830151513 23 124 9.7 25.7 0.00 0.00 0.00 83 1018.7
20260830150113 23 274 11.3 24.1 0.00 0.00 0.00 83 1018.8
20260830144505 23 308 9.7 24.1 0.00 0.00 0.00 82 1018.9
20260830143043 22 124 4.8 25.7 0.00 0.00 0.00 83 1019.1
20260830141506 23 124 8.0 20.9 0.00 0.00 0.00 82 1019.1
20260830140052 23 269 6.4 16.1 0.00 0.00 0.00 79 1019.2
20260830134533 22 124 6.4 14.5 0.00 0.00 0.00 78 1019.3
20260830133055 22 279 8.0 19.3 0.00 0.00 0.00 80 1019.6